{"data":{"norad_id":68417,"epoch":"2026-05-25T04:11:38.704128Z","epoch_age_seconds":53751,"freshness":"FRESH","line1":"1 68417U 26067B   26145.17475352  .00006337  00000+0  30554-3 0  9997","line2":"2 68417  97.4550 104.0573 0002885  44.6800 315.4666 15.19057049  8452","mean_motion":15.19057049,"eccentricity":0.0002885,"inclination_deg":97.455,"raan_deg":104.0573,"arg_perigee_deg":44.68,"mean_anomaly_deg":315.4666,"bstar":0.00030554,"rev_number":845,"period_min":94.795649771545,"perigee_km":506.70227808917,"apogee_km":510.6759767647,"semimajor_km":6886.8261274269,"source":"CELESTRAK","updated_at":"2026-05-25T13:38:07.810543Z"}}